"SCET";"TARGET";"ELECTRON_DENSITY";"ERROR_FLAG";"ELECTRON_DENSITY_ERROR";"FREQ_FCE";"MEASURED_VALUE";"MEASURED_ITEM";"FREQ_PLASMA";"FREQ_UPPER_HYBRID";"FREQ_R_EQUALS_ZERO";"FREQ_L_EQUALS_ZERO";"ORBIT_NUMBER";"SATURN_RADIUS";"SATURN_IAU_LONGITUDE";"SATURN_SLS4_S_LONGITUDE";"SATURN_SLS4_N_LONGITUDE";"SATURN_SLS5_S_LONGITUDE";"SATURN_SLS5_N_LONGITUDE";"SATURN_LOCAL_TIME";"SATURN_KRONOGRAPHIC_LATITUDE";"SATURN_MAGNETIC_LATITUDE";"SATURN_L";"SATURN_L_OFFSET";"SATURN_SOLAR_EQUATORIAL_X";"SATURN_SOLAR_EQUATORIAL_Y";"SATURN_SOLAR_EQUATORIAL_Z";"SATURN_ALTITUDE";"ENCELADUS_ENCOUNTER_NUMBER";"ENCELADUS_RADIUS";"ENCELADUS_COROTATIONAL_X";"ENCELADUS_COROTATIONAL_Y";"ENCELADUS_COROTATIONAL_Z";"ENCELADUS_TRUE_ANOMALY";"ENCELADUS_PERIAPSIS_TIME";"JUPITER_RADIUS";"JUPITER_SYSTEMIII_LONGITUDE";"JUPITER_MAGNETIC_LATITUDE";"JUPITER_MAGNETIC_LOCAL_TIME";"JUPITER_L";"IO_PHASE";"EARTH_RADIUS";"EARTH_MAGNETIC_LATITUDE";"EARTH_LOCAL_TIME";"EARTH_L"
"[UTC]";"[0=Saturn, 1=Enceladus, 2=Jupiter, 3=Earth]";"[cm-3]";"[0=automated, 1=manual]";"[normalized density error]";"[Hz]";"[Hz]";"[0=upper hybrid frequency, 1=plasma frequency cutoff]";"[Hz]";"[Hz]";"[Hz]";"[Hz}";"[0, A, B, C, 3, 4, ... , 292, 293]";"[Rs where 1Rs=60268km]";"[degrees]";"[degrees]";"[degrees]";"[degrees]";"[degrees]";"[hours]";"[degrees]";"[degrees where offset=2293km north]";"[Rs where 1Rs=60268km]";"[Rs where 1Rs=60268km and offset=2293km north]";"[Rs where 1Rs=60268km]";"[Rs where 1Rs=60268km]";"[Rs where 1Rs=60268km]";"[km where ellipsoid a,b=60268km and c=54364km]";"[E0, E1, E2, ... , E21, E22]";"[Renc where 1Renc=252.1km]";"[Renc where 1Renc=252.1km]";"[Renc where 1Renc=252.1km]";"[Renc where 1Renc=252.1km]";"[degrees]";"[UTC]";"[Rj where 1Rj=71492km]";"[degrees]";"[degrees using JRM09 model]";"[hours using JRM09 model]";"[Rj where 1Rj=71492km]";"[degrees]";"[Re where 1Re=6378.1366km]";"[degrees]";"[hours]";"[Re where 1Re=6378.1366km]"
2017-06-29T21:44:53.599Z;0;5.8530e+00;0;     0.258;422854.281;  21725.514; 1;  21725.514; 423412.031; 423967.562;   1113.288;281;   1.251; 195.285;;; 291.934; 271.985;  10.671;  35.037;  33.586;   1.866;   1.229;   0.963;  -0.349;   0.718;17226.312;;;;;;;;;;;;;;;;;
2017-06-29T21:45:09.599Z;0;6.6820e+00;0;     0.157;426434.719;  23212.510; 1;  23212.510; 427066.031; 427694.562;   1259.826;281;   1.248; 195.193;;; 291.840; 271.888;  10.687;  34.752;  33.292;   1.849;   1.226;   0.966;  -0.345;   0.711;17011.881;;;;;;;;;;;;;;;;;
2017-06-29T21:45:26.134Z;0;7.6280e+00;0;     0.340;426434.719;  24801.281; 1;  24801.281; 427155.344; 427872.312;   1437.587;281;   1.245; 195.098;;; 291.743; 271.788;  10.704;  34.456;  32.987;   1.831;   1.223;   0.968;  -0.342;   0.704;16791.271;;;;;;;;;;;;;;;;;
2017-06-29T21:45:42.133Z;0;7.8840e+00;0;     0.324;426434.719;  25215.184; 1;  25215.184; 427179.562; 427920.531;   1485.803;281;   1.242; 195.006;;; 291.649; 271.692;  10.720;  34.167;  32.690;   1.814;   1.220;   0.970;  -0.338;   0.697;16578.789;;;;;;;;;;;;;;;;;
2017-06-29T21:45:57.598Z;0;7.6280e+00;0;     0.145;426434.719;  24801.281; 1;  24801.281; 427155.344; 427872.312;   1437.587;281;   1.239; 194.918;;; 291.560; 271.600;  10.736;  33.886;  32.401;   1.798;   1.217;   0.973;  -0.334;   0.691;16374.328;;;;;;;;;;;;;;;;;
2017-06-29T21:46:14.133Z;0;1.0270e+01;0;     0.167;429572.969;  28785.000; 1;  28785.000; 430536.312; 431493.219;   1920.253;281;   1.236; 194.825;;; 291.464; 271.502;  10.752;  33.584;  32.089;   1.781;   1.214;   0.975;  -0.330;   0.684;16156.746;;;;;;;;;;;;;;;;;
2017-06-29T21:46:30.133Z;0;1.1350e+01;0;     0.157;429572.969;  30250.342; 1;  30250.342; 430636.750; 431692.719;   2119.756;281;   1.233; 194.735;;; 291.372; 271.407;  10.768;  33.289;  31.786;   1.764;   1.211;   0.977;  -0.327;   0.677;15947.231;;;;;;;;;;;;;;;;;
2017-06-29T21:46:45.598Z;0;1.0620e+01;0;     0.140;429572.969;  29265.385; 1;  29265.385; 430568.688; 431557.562;   1984.585;281;   1.230; 194.648;;; 291.284; 271.316;  10.784;  33.003;  31.492;   1.749;   1.208;   0.980;  -0.323;   0.670;15745.698;;;;;;;;;;;;;;;;;
2017-06-29T21:47:02.133Z;0;1.1350e+01;0;     0.819;432282.906;  30250.342; 1;  30250.342; 433340.031; 434389.500;   2106.596;281;   1.227; 194.556;;; 291.190; 271.219;  10.800;  32.695;  31.175;   1.732;   1.206;   0.982;  -0.319;   0.663;15531.301;;;;;;;;;;;;;;;;;
2017-06-29T21:47:18.133Z;0;1.1350e+01;0;     0.276;432282.906;  30250.342; 1;  30250.342; 433340.031; 434389.500;   2106.596;281;   1.224; 194.468;;; 291.099; 271.126;  10.816;  32.394;  30.866;   1.717;   1.203;   0.984;  -0.315;   0.656;15324.920;;;;;;;;;;;;;;;;;
2017-06-29T21:47:33.598Z;0;1.3390e+01;0;     0.154;432282.906;  32860.211; 1;  32860.211; 433530.031; 434766.500;   2483.617;281;   1.221; 194.382;;; 291.012; 271.036;  10.831;  32.102;  30.565;   1.702;   1.200;   0.986;  -0.311;   0.649;15126.467;;;;;;;;;;;;;;;;;
2017-06-29T21:47:50.133Z;0;1.5800e+01;0;     0.114;432282.906;  35695.246; 1;  35695.246; 433754.125; 435210.562;   2927.665;281;   1.218; 194.292;;; 290.919; 270.941;  10.848;  31.788;  30.242;   1.686;   1.197;   0.989;  -0.308;   0.642;14915.417;;;;;;;;;;;;;;;;;
2017-06-29T21:48:06.133Z;0;1.5800e+01;0;     0.107;434566.406;  35695.246; 1;  35695.246; 436029.938; 437478.875;   2912.485;281;   1.215; 194.204;;; 290.830; 270.849;  10.864;  31.482;  29.928;   1.671;   1.195;   0.991;  -0.304;   0.635;14712.331;;;;;;;;;;;;;;;;;
2017-06-29T21:48:21.597Z;0;1.4790e+01;0;     0.288;434566.406;  34533.004; 1;  34533.004; 435936.344; 437293.469;   2727.066;281;   1.212; 194.121;;; 290.744; 270.761;  10.879;  31.185;  29.622;   1.657;   1.192;   0.993;  -0.300;   0.628;14517.126;;;;;;;;;;;;;;;;;
2017-06-29T21:48:37.597Z;0;2.0590e+01;0;     0.160;434566.406;  40748.766; 1;  40748.766; 436472.688; 438354.344;   3787.944;281;   1.210; 194.034;;; 290.656; 270.670;  10.895;  30.875;  29.303;   1.642;   1.189;   0.995;  -0.296;   0.621;14316.288;;;;;;;;;;;;;;;;;
2017-06-29T21:48:54.132Z;0;1.9920e+01;0;     0.087;434566.406;  40079.883; 1;  40079.883; 436410.750; 438232.031;   3665.631;281;   1.207; 193.945;;; 290.565; 270.576;  10.911;  30.553;  28.972;   1.627;   1.187;   0.997;  -0.292;   0.613;14109.967;;;;;;;;;;;;;;;;;
2017-06-29T21:49:09.597Z;0;1.8640e+01;0;     0.090;436412.250;  38774.879; 1;  38774.879; 438131.438; 439830.594;   3418.342;281;   1.204; 193.862;;; 290.481; 270.489;  10.926;  30.250;  28.661;   1.613;   1.184;   0.999;  -0.288;   0.606;13918.147;;;;;;;;;;;;;;;;;
2017-06-29T21:49:26.132Z;0;2.5960e+01;0;     0.326;436412.250;  45754.156; 1;  45754.156; 438804.188; 441157.594;   4745.340;281;   1.201; 193.774;;; 290.391; 270.397;  10.942;  29.924;  28.326;   1.599;   1.181;   1.001;  -0.284;   0.599;13714.307;;;;;;;;;;;;;;;;;
2017-06-29T21:49:42.132Z;0;2.3510e+01;0;     0.104;436412.250;  43537.805; 1;  43537.805; 438578.625; 440713.344;   4301.073;281;   1.198; 193.690;;; 290.304; 270.307;  10.958;  29.606;  28.000;   1.585;   1.179;   1.003;  -0.281;   0.592;13518.313;;;;;;;;;;;;;;;;;
2017-06-29T21:49:58.132Z;0;2.5960e+01;0;     0.100;436412.250;  45754.156; 1;  45754.156; 438804.188; 441157.594;   4745.340;281;   1.196; 193.605;;; 290.218; 270.219;  10.974;  29.287;  27.672;   1.572;   1.176;   1.005;  -0.277;   0.585;13323.569;;;;;;;;;;;;;;;;;
2017-06-29T21:50:14.132Z;0;2.2740e+01;0;     0.105;437798.344;  42823.141; 1;  42823.141; 439887.719; 441947.750;   4149.408;281;   1.193; 193.521;;; 290.132; 270.131;  10.989;  28.966;  27.342;   1.558;   1.174;   1.007;  -0.273;   0.578;13130.096;;;;;;;;;;;;;;;;;
2017-06-29T21:50:29.596Z;0;2.9640e+01;0;     0.192;437798.344;  48885.785; 1;  48885.785; 440519.250; 443190.656;   5392.307;281;   1.190; 193.440;;; 290.048; 270.046;  11.004;  28.653;  27.022;   1.546;   1.171;   1.009;  -0.269;   0.571;12944.329;;;;;;;;;;;;;;;;;
2017-06-29T21:50:45.596Z;0;2.0590e+01;0;     0.153;437798.344;  40748.766; 1;  40748.766; 439690.625; 441558.812;   3760.455;281;   1.188; 193.357;;; 289.962; 269.959;  11.020;  28.329;  26.688;   1.533;   1.169;   1.011;  -0.265;   0.563;12753.413;;;;;;;;;;;;;;;;;
2017-06-29T21:51:01.596Z;0;2.0590e+01;0;     0.238;438730.281;  40748.766; 1;  40748.766; 440618.562; 442482.875;   3752.602;281;   1.185; 193.274;;; 289.877; 269.872;  11.035;  28.002;  26.353;   1.520;   1.166;   1.013;  -0.261;   0.556;12563.827;;;;;;;;;;;;;;;;;
2017-06-29T21:51:18.131Z;0;2.5960e+01;0;     0.188;438730.281;  45754.156; 1;  45754.156; 441109.625; 443451.062;   4720.798;281;   1.182; 193.189;;; 289.789; 269.783;  11.051;  27.662;  26.005;   1.507;   1.164;   1.015;  -0.257;   0.549;12369.323;;;;;;;;;;;;;;;;;
2017-06-29T21:51:33.596Z;0;2.1280e+01;0;     0.199;438730.281;  41428.812; 1;  41428.812; 440681.969; 442608.094;   3877.802;281;   1.180; 193.110;;; 289.707; 269.700;  11.066;  27.342;  25.677;   1.495;   1.161;   1.017;  -0.253;   0.542;12188.733;;;;;;;;;;;;;;;;;
2017-06-29T21:51:49.596Z;0;3.3830e+01;0;     0.110;438730.281;  52231.758; 1;  52231.758; 441828.500; 444862.844;   6132.579;281;   1.177; 193.028;;; 289.622; 269.615;  11.082;  27.010;  25.336;   1.483;   1.159;   1.019;  -0.250;   0.534;12003.268;;;;;;;;;;;;;;;;;
2017-06-29T21:52:06.131Z;0;2.5960e+01;0;     0.401;439218.531;  45754.156; 1;  45754.156; 441595.250; 443934.188;   4715.660;281;   1.174; 192.944;;; 289.535; 269.527;  11.098;  26.664;  24.982;   1.470;   1.157;   1.020;  -0.246;   0.527;11813.088;;;;;;;;;;;;;;;;;
2017-06-29T21:52:22.131Z;0;2.9640e+01;0;     0.139;439218.531;  48885.785; 1;  48885.785; 441930.688; 444593.812;   5375.289;281;   1.172; 192.863;;; 289.452; 269.443;  11.113;  26.328;  24.637;   1.459;   1.154;   1.022;  -0.242;   0.520;11630.523;;;;;;;;;;;;;;;;;
2017-06-29T21:52:37.596Z;0;3.8620e+01;0;     0.095;439218.531;  55806.742; 1;  55806.742; 442749.719; 446198.375;   6979.838;281;   1.169; 192.785;;; 289.371; 269.362;  11.128;  26.001;  24.303;   1.448;   1.152;   1.024;  -0.238;   0.513;11455.452;;;;;;;;;;;;;;;;;
2017-06-29T21:52:53.596Z;0;3.2730e+01;0;     0.135;439218.531;  51374.383; 1;  51374.383; 442212.906; 445147.625;   5929.105;281;   1.167; 192.705;;; 289.288; 269.278;  11.143;  25.662;  23.954;   1.436;   1.150;   1.025;  -0.234;   0.505;11275.781;;;;;;;;;;;;;;;;;
2017-06-29T21:53:09.595Z;0;3.2730e+01;0;     0.098;439295.938;  51374.383; 1;  51374.383; 442289.781; 445224.031;   5928.088;281;   1.164; 192.625;;; 289.206; 269.195;  11.159;  25.320;  23.604;   1.425;   1.148;   1.027;  -0.230;   0.498;11097.626;;;;;;;;;;;;;;;;;
2017-06-29T21:53:25.595Z;0;4.2650e+01;0;     0.177;439295.938;  58647.664; 1;  58647.664; 443193.500; 446990.844;   7694.897;281;   1.162; 192.545;;; 289.124; 269.112;  11.174;  24.976;  23.253;   1.414;   1.145;   1.029;  -0.226;   0.491;10920.986;;;;;;;;;;;;;;;;;
2017-06-29T21:53:41.595Z;0;3.2730e+01;0;     0.152;439295.938;  51374.383; 1;  51374.383; 442289.781; 445224.031;   5928.088;281;   1.160; 192.466;;; 289.042; 269.030;  11.189;  24.631;  22.899;   1.403;   1.143;   1.030;  -0.222;   0.483;10745.896;;;;;;;;;;;;;;;;;
2017-06-29T21:53:57.595Z;0;3.7360e+01;0;     0.180;439295.938;  54890.688; 1;  54890.688; 442712.000; 446050.750;   6754.809;281;   1.157; 192.387;;; 288.961; 268.949;  11.205;  24.284;  22.544;   1.393;   1.141;   1.032;  -0.218;   0.476;10572.380;;;;;;;;;;;;;;;;;
2017-06-29T21:54:13.595Z;0;3.6150e+01;0;     0.112;439015.938;  53989.668; 1;  53989.668; 442323.281; 445558.031;   6542.098;281;   1.155; 192.308;;; 288.880; 268.868;  11.220;  23.935;  22.187;   1.382;   1.139;   1.034;  -0.214;   0.468;10400.458;;;;;;;;;;;;;;;;;
2017-06-29T21:54:30.130Z;0;3.8620e+01;0;     0.073;439015.938;  55806.742; 1;  55806.742; 442548.750; 445998.906;   6982.960;281;   1.152; 192.227;;; 288.797; 268.784;  11.236;  23.572;  21.816;   1.372;   1.137;   1.035;  -0.210;   0.461;10224.489;;;;;;;;;;;;;;;;;
2017-06-29T21:54:45.595Z;0;3.6150e+01;0;     0.150;439015.938;  53989.668; 1;  53989.668; 442323.281; 445558.031;   6542.098;281;   1.150; 192.152;;; 288.719; 268.707;  11.250;  23.231;  21.468;   1.362;   1.134;   1.037;  -0.206;   0.454;10061.496;;;;;;;;;;;;;;;;;
2017-06-29T21:55:02.130Z;0;4.4090e+01;0;     0.079;438422.281;  59626.418; 1;  59626.418; 442458.375; 446386.906;   7964.637;281;   1.148; 192.071;;; 288.637; 268.624;  11.266;  22.865;  21.093;   1.352;   1.132;   1.038;  -0.202;   0.446; 9888.947;;;;;;;;;;;;;;;;;
2017-06-29T21:55:17.595Z;0;4.5570e+01;0;     0.105;438422.281;  60621.508; 1;  60621.508; 442593.562; 446650.125;   8227.844;281;   1.145; 191.996;;; 288.560; 268.548;  11.281;  22.521;  20.741;   1.342;   1.130;   1.039;  -0.198;   0.439; 9729.198;;;;;;;;;;;;;;;;;
2017-06-29T21:55:34.130Z;0;4.8690e+01;0;     0.072;438422.281;  62661.785; 1;  62661.785; 442877.625; 447202.406;   8780.139;281;   1.143; 191.916;;; 288.478; 268.466;  11.296;  22.151;  20.363;   1.333;   1.128;   1.041;  -0.194;   0.431; 9560.168;;;;;;;;;;;;;;;;;
2017-06-29T21:55:50.130Z;0;6.3450e+01;0;     0.070;438422.281;  71533.070; 1;  71533.070; 444219.625; 449798.438;  11376.162;281;   1.141; 191.839;;; 288.400; 268.388;  11.312;  21.792;  19.996;   1.323;   1.126;   1.042;  -0.190;   0.423; 9398.374;;;;;;;;;;;;;;;;;
2017-06-29T21:56:06.129Z;0;6.3450e+01;0;     0.088;437552.469;  71533.070; 1;  71533.070; 443361.188; 448950.125;  11397.658;281;   1.139; 191.763;;; 288.322; 268.310;  11.327;  21.430;  19.627;   1.314;   1.124;   1.044;  -0.186;   0.416; 9238.353;;;;;;;;;;;;;;;;;
2017-06-29T21:56:22.129Z;0;7.2440e+01;0;     0.081;437552.469;  76429.125; 1;  76429.125; 444177.406; 450518.438;  12965.976;281;   1.137; 191.686;;; 288.244; 268.232;  11.342;  21.067;  19.256;   1.305;   1.122;   1.045;  -0.182;   0.408; 9080.108;;;;;;;;;;;;;;;;;
2017-06-29T21:56:38.129Z;0;7.0080e+01;0;     0.100;437552.469;  75174.555; 1;  75174.555; 443963.250; 450107.719;  12555.247;281;   1.134; 191.610;;; 288.166; 268.155;  11.357;  20.702;  18.884;   1.296;   1.120;   1.046;  -0.178;   0.401; 8923.676;;;;;;;;;;;;;;;;;
2017-06-29T21:56:53.594Z;0;8.2690e+01;0;     0.067;437552.469;  81660.297; 1;  81660.297; 445107.375; 452295.938;  14743.454;281;   1.132; 191.537;;; 288.092; 268.081;  11.372;  20.348;  18.523;   1.288;   1.119;   1.047;  -0.174;   0.394; 8774.219;;;;;;;;;;;;;;;;;
2017-06-29T21:57:10.129Z;0;8.2690e+01;0;     0.075;436425.125;  81660.297; 1;  81660.297; 443999.188; 451204.250;  14779.125;281;   1.130; 191.458;;; 288.013; 268.003;  11.387;  19.968;  18.135;   1.279;   1.117;   1.049;  -0.170;   0.386; 8616.343;;;;;;;;;;;;;;;;;
2017-06-29T21:57:25.594Z;0;9.1330e+01;0;     0.075;436425.125;  85817.320; 1;  85817.320; 444782.531; 452693.531;  16268.429;281;   1.128; 191.385;;; 287.939; 267.930;  11.402;  19.610;  17.770;   1.271;   1.115;   1.050;  -0.166;   0.379; 8470.505;;;;;;;;;;;;;;;;;
2017-06-29T21:57:41.594Z;0;1.0090e+02;0;     0.082;436425.125;  90185.977; 1;  90185.977; 445646.031; 454327.438;  17902.311;281;   1.126; 191.310;;; 287.863; 267.854;  11.417;  19.239;  17.391;   1.263;   1.113;   1.051;  -0.162;   0.371; 8321.499;;;;;;;;;;;;;;;;;
2017-06-29T21:57:58.129Z;0;6.1390e+01;0;     0.069;436425.125;  70358.867; 1;  70358.867; 442060.250; 447487.688;  11062.584;281;   1.124; 191.232;;; 287.785; 267.777;  11.432;  18.853;  16.998;   1.255;   1.111;   1.052;  -0.158;   0.363; 8169.543;;;;;;;;;;;;;;;;;
2017-06-29T21:58:13.593Z;0;9.7580e+01;0;     0.085;435087.781;  88705.594; 1;  88705.594; 444038.375; 452478.000;  17390.199;281;   1.122; 191.160;;; 287.713; 267.705;  11.447;  18.491;  16.630;   1.248;   1.110;   1.053;  -0.154;   0.356; 8029.323;;;;;;;;;;;;;;;;;
2017-06-29T21:58:30.129Z;0;9.1330e+01;0;     0.074;435087.781;  85817.320; 1;  85817.320; 443470.406; 451402.750;  16314.948;281;   1.120; 191.083;;; 287.636; 267.629;  11.462;  18.102;  16.233;   1.240;   1.108;   1.054;  -0.149;   0.348; 7881.433;;;;;;;;;;;;;;;;;
2017-06-29T21:58:46.128Z;0;1.2300e+02;0;     0.125;435087.781;  99601.773; 1;  99601.773; 446342.812; 456804.969;  21717.176;281;   1.118; 191.008;;; 287.561; 267.556;  11.477;  17.724;  15.849;   1.232;   1.106;   1.055;  -0.145;   0.340; 7740.388;;;;;;;;;;;;;;;;;
2017-06-29T21:59:02.128Z;0;1.1510e+02;0;     0.154;433586.781;  96358.727; 1;  96358.727; 444164.938; 454036.688;  20449.898;281;   1.116; 190.934;;; 287.487; 267.483;  11.492;  17.344;  15.462;   1.225;   1.104;   1.056;  -0.141;   0.333; 7601.367;;;;;;;;;;;;;;;;;
2017-06-29T21:59:18.128Z;0;1.4040e+02;0;     0.068;433586.781; 106418.984; 1; 106418.984; 446455.469; 458297.781;  24711.008;281;   1.114; 190.860;;; 287.414; 267.411;  11.507;  16.963;  15.075;   1.218;   1.103;   1.057;  -0.137;   0.325; 7464.406;;;;;;;;;;;;;;;;;
2017-06-29T21:59:33.593Z;0;1.4040e+02;0;     0.082;433586.781; 106418.984; 1; 106418.984; 446455.469; 458297.781;  24711.008;281;   1.113; 190.788;;; 287.343; 267.341;  11.521;  16.593;  14.698;   1.211;   1.101;   1.058;  -0.133;   0.318; 7334.003;;;;;;;;;;;;;;;;;
2017-06-29T21:59:50.128Z;0;1.4040e+02;0;     0.069;433586.781; 106418.984; 1; 106418.984; 446455.469; 458297.781;  24711.008;281;   1.111; 190.712;;; 287.268; 267.267;  11.537;  16.197;  14.295;   1.205;   1.100;   1.059;  -0.129;   0.310; 7196.757;;;;;;;;;;;;;;;;;
2017-06-29T22:00:06.128Z;0;1.6030e+02;0;     4.783;431995.250; 113702.797; 1; 113702.797; 446708.188; 460094.531;  28099.283;281;   1.109; 190.638;;; 287.194; 267.194;  11.552;  15.811;  13.903;   1.198;   1.098;   1.060;  -0.125;   0.302; 7066.121;;;;;;;;;;;;;;;;;
2017-06-29T22:00:22.128Z;0;1.6030e+02;0;     0.106;431995.250; 113702.797; 1; 113702.797; 446708.188; 460094.531;  28099.283;281;   1.107; 190.565;;; 287.117; 267.115;  11.567;  15.424;  13.510;   1.192;   1.097;   1.061;  -0.121;   0.294; 6937.641;;;;;;;;;;;;;;;;;
2017-06-29T22:00:37.593Z;0;1.5510e+02;0;     0.088;431995.250; 111836.391; 1; 111836.391; 446236.781; 459230.750;  27235.498;281;   1.106; 190.494;;; 287.043; 267.040;  11.581;  15.048;  13.128;   1.186;   1.095;   1.061;  -0.117;   0.287; 6815.531;;;;;;;;;;;;;;;;;
2017-06-29T22:00:54.128Z;0;1.8920e+02;0;     0.112;431995.250; 123512.586; 1; 123512.586; 449305.281; 464815.500;  32820.246;281;   1.104; 190.418;;; 286.964; 266.959;  11.597;  14.645;  12.719;   1.179;   1.094;   1.062;  -0.113;   0.279; 6687.252;;;;;;;;;;;;;;;;;
2017-06-29T22:01:09.592Z;0;1.8920e+02;0;     0.065;430377.406; 123512.586; 1; 123512.586; 447750.031; 463304.688;  32927.270;281;   1.102; 190.348;;; 286.890; 266.883;  11.611;  14.267;  12.335;   1.174;   1.092;   1.063;  -0.109;   0.272; 6569.438;;;;;;;;;;;;;;;;;
2017-06-29T22:01:25.592Z;0;1.6570e+02;0;     0.080;430377.406; 115600.352; 1; 115600.352; 445632.312; 459462.375;  29084.953;281;   1.101; 190.275;;; 286.814; 266.805;  11.626;  13.874;  11.936;   1.168;   1.091;   1.063;  -0.104;   0.264; 6449.755;;;;;;;;;;;;;;;;;
2017-06-29T22:01:42.127Z;0;1.5510e+02;0;     0.070;430377.406; 111836.391; 1; 111836.391; 444670.781; 457703.781;  27326.359;281;   1.099; 190.199;;; 286.735; 266.725;  11.641;  13.467;  11.523;   1.162;   1.090;   1.064;  -0.100;   0.256; 6328.465;;;;;;;;;;;;;;;;;
2017-06-29T22:01:57.592Z;0;1.5510e+02;0;     0.083;430377.406; 111836.391; 1; 111836.391; 444670.781; 457703.781;  27326.359;281;   1.097; 190.129;;; 286.661; 266.650;  11.656;  13.084;  11.135;   1.157;   1.088;   1.065;  -0.096;   0.248; 6217.249;;;;;;;;;;;;;;;;;
2017-06-29T22:02:14.127Z;0;1.3590e+02;0;     0.066;428790.562; 104672.141; 1; 104672.141; 441381.469; 452977.750;  24187.186;281;   1.096; 190.054;;; 286.583; 266.569;  11.671;  12.674;  10.720;   1.151;   1.087;   1.065;  -0.092;   0.240; 6100.741;;;;;;;;;;;;;;;;;
2017-06-29T22:02:30.127Z;0;1.3140e+02;0;     0.069;428790.562; 102953.969; 1; 102953.969; 440977.156; 452228.938;  23438.393;281;   1.094; 189.981;;; 286.507; 266.491;  11.686;  12.276;  10.316;   1.146;   1.086;   1.066;  -0.088;   0.233; 5990.391;;;;;;;;;;;;;;;;;
2017-06-29T22:02:45.592Z;0;1.4520e+02;0;     0.066;428790.562; 108194.984; 1; 108194.984; 442230.125; 454544.156;  25753.613;281;   1.093; 189.911;;; 286.434; 266.416;  11.700;  11.890;   9.925;   1.141;   1.085;   1.066;  -0.084;   0.225; 5885.985;;;;;;;;;;;;;;;;;
2017-06-29T22:03:02.127Z;0;1.5510e+02;0;     0.079;427294.531; 111836.391; 1; 111836.391; 441687.656; 454795.625;  27501.098;281;   1.091; 189.836;;; 286.356; 266.336;  11.715;  11.476;   9.506;   1.136;   1.083;   1.067;  -0.080;   0.217; 5776.831;;;;;;;;;;;;;;;;;
2017-06-29T22:03:17.592Z;0;1.5510e+02;0;     0.078;427294.531; 111836.391; 1; 111836.391; 441687.656; 454795.625;  27501.098;281;   1.090; 189.766;;; 286.283; 266.261;  11.730;  11.087;   9.113;   1.132;   1.082;   1.067;  -0.076;   0.210; 5677.076;;;;;;;;;;;;;;;;;
2017-06-29T22:03:33.591Z;0;1.4040e+02;0;     0.089;427294.531; 106418.984; 1; 106418.984; 440347.156; 452331.469;  25036.949;281;   1.089; 189.693;;; 286.208; 266.184;  11.745;  10.684;   8.705;   1.127;   1.081;   1.067;  -0.071;   0.202; 5576.275;;;;;;;;;;;;;;;;;
2017-06-29T22:03:50.126Z;0;1.5010e+02;0;     0.082;427294.531; 110000.617; 1; 110000.617; 441226.406; 453949.750;  26655.232;281;   1.087; 189.618;;; 286.130; 266.104;  11.760;  10.266;   8.282;   1.123;   1.080;   1.068;  -0.067;   0.194; 5474.684;;;;;;;;;;;;;;;;;
2017-06-29T22:04:05.591Z;0;1.4520e+02;0;     0.089;425947.531; 108194.984; 1; 108194.984; 439474.062; 451854.469;  25906.914;281;   1.086; 189.548;;; 286.058; 266.029;  11.774;   9.874;   7.886;   1.119;   1.079;   1.068;  -0.063;   0.186; 5382.066;;;;;;;;;;;;;;;;;
2017-06-29T22:04:22.126Z;0;1.3140e+02;0;     0.060;425947.531; 102953.969; 1; 102953.969; 438213.219; 449526.812;  23579.281;281;   1.085; 189.473;;; 285.980; 265.949;  11.790;   9.454;   7.461;   1.115;   1.078;   1.068;  -0.059;   0.178; 5285.628;;;;;;;;;;;;;;;;;
2017-06-29T22:04:38.126Z;0;1.2720e+02;0;     0.164;425947.531; 101264.000; 1; 101264.000; 437819.250; 448796.219;  22848.672;281;   1.083; 189.401;;; 285.906; 265.872;  11.804;   9.046;   7.049;   1.111;   1.077;   1.069;  -0.055;   0.170; 5194.877;;;;;;;;;;;;;;;;;
2017-06-29T22:04:53.591Z;0;1.2720e+02;0;     0.109;425947.531; 101264.000; 1; 101264.000; 437819.250; 448796.219;  22848.672;281;   1.082; 189.331;;; 285.834; 265.797;  11.819;   8.651;   6.650;   1.107;   1.076;   1.069;  -0.051;   0.163; 5109.581;;;;;;;;;;;;;;;;;
2017-06-29T22:05:10.126Z;0;1.2720e+02;0;     0.182;424826.469; 101264.000; 1; 101264.000; 436728.656; 447729.562;  22903.105;281;   1.081; 189.256;;; 285.757; 265.717;  11.834;   8.227;   6.222;   1.104;   1.075;   1.069;  -0.046;   0.155; 5021.033;;;;;;;;;;;;;;;;;
2017-06-29T22:05:25.591Z;0;1.2300e+02;0;     0.105;424826.469;  99601.773; 1;  99601.773; 436346.250; 447019.062;  22192.596;281;   1.080; 189.186;;; 285.685; 265.643;  11.849;   7.830;   5.822;   1.100;   1.074;   1.069;  -0.042;   0.147; 4940.714;;;;;;;;;;;;;;;;;
2017-06-29T22:05:41.591Z;0;1.2300e+02;0;     0.111;424826.469;  99601.773; 1;  99601.773; 436346.250; 447019.062;  22192.596;281;   1.079; 189.114;;; 285.611; 265.566;  11.863;   7.418;   5.406;   1.097;   1.073;   1.069;  -0.038;   0.139; 4860.176;;;;;;;;;;;;;;;;;
2017-06-29T22:05:58.126Z;0;1.5510e+02;0;     0.097;424826.469; 111836.391; 1; 111836.391; 439300.469; 452468.969;  27642.510;281;   1.078; 189.039;;; 285.534; 265.487;  11.879;   6.991;   4.976;   1.094;   1.073;   1.069;  -0.034;   0.131; 4779.701;;;;;;;;;;;;;;;;;
2017-06-29T22:06:13.590Z;0;1.2720e+02;0;     0.101;424011.469; 101264.000; 1; 101264.000; 435935.906; 446954.312;  22942.832;281;   1.077; 188.969;;; 285.463; 265.412;  11.893;   6.591;   4.573;   1.091;   1.072;   1.069;  -0.030;   0.123; 4706.989;;;;;;;;;;;;;;;;;
2017-06-29T22:06:30.125Z;0;1.5510e+02;0;     0.306;424011.469; 111836.391; 1; 111836.391; 438512.375; 451700.969;  27689.510;281;   1.076; 188.894;;; 285.387; 265.333;  11.908;   6.162;   4.141;   1.088;   1.071;   1.069;  -0.026;   0.115; 4631.988;;;;;;;;;;;;;;;;;